Temperature
6 8 8 8 8 9 9 9 9 9 9 9 9 10 10 10 9 9 8 8 8 7 7 7 7 8 8 9 9 9 10 10 11 11 11 11 11 12 12 12 12 12 12 12
7 7 7 7 7 7 8 8 9 9 9 9 9 9 10 9 9 8 8 7 7 7 7 7 7 7 7 8 8 9 9 10 10 10 10 10 11 11 11 12 12 12 12 12
7 7 7 7 7 7 8 8 8 8 9 9 9 10 10 10 9 8 7 7 6 6 6 6 6 6 7 7 8 8 9 9 9 9 9 10 10 10 11 11 11 11 11 12
7 7 7 7 7 7 8 8 8 8 8 9 9 10 11 10 10 9 8 7 6 5 5 5 5 5 6 6 7 7 8 8 9 9 9 9 9 9 10 10 10 11 11 11
7 7 7 7 7 7 8 8 7 8 8 8 9 9 10 10 9 9 8 6 5 5 4 4 4 5 5 6 6 7 7 7 8 8 8 8 8 9 9 9 10 10 10 10
7 7 7 7 7 7 7 7 7 8 8 8 9 9 10 9 8 8 7 6 5 4 4 4 4 4 5 5 6 6 7 7 7 8 8 8 8 8 8 9 9 9 9 10
7 7 7 6 7 7 7 8 9 9 9 10 9 8 9 9 8 7 6 5 4 4 3 4 4 4 4 5 5 6 6 6 7 7 7 8 8 8 8 8 8 8 9 9
7 7 7 7 7 8 8 8 9 10 10 10 8 9 10 8 7 6 5 5 4 4 3 3 3 3 4 4 4 5 5 6 6 6 7 7 7 7 7 8 8 8 8 8
8 8 7 7 7 8 8 8 8 8 8 9 10 9 9 8 7 6 6 5 4 4 3 3 3 3 3 3 4 4 5 5 5 6 6 6 7 7 7 7 7 7 7 8
7 7 8 7 7 7 8 8 7 8 9 10 10 10 10 8 8 7 6 5 4 3 3 3 3 3 3 3 4 4 4 4 5 5 5 6 6 6 6 7 7 7 7 7
7 7 8 8 8 8 7 7 7 8 8 9 10 11 9 8 8 7 6 5 4 3 3 3 3 3 3 3 3 4 4 4 4 4 5 5 5 5 6 6 6 6 6 6
7 7 8 8 8 8 8 8 8 8 8 8 9 10 8 8 7 6 6 5 4 3 3 3 3 3 3 3 3 3 3 3 3 3 4 4 4 4 4 5 5 5 5 5
7 7 8 9 8 8 8 8 8 8 8 8 9 10 8 7 7 6 5 5 4 3 3 3 3 3 3 3 3 3 3 3 3 3 3 3 3 4 4 4 4 4 4 4
7 8 8 9 9 8 8 8 8 7 8 9 9 9 8 8 7 7 6 5 4 3 3 2 2 2 2 2 2 2 2 2 2 2 2 2 3 3 3 3 3 3 3 3
8 7 7 7 8 7 7 8 8 7 8 9 10 9 9 9 8 6 5 5 4 3 3 2 2 2 2 2 2 2 2 2 2 2 2 2 2 2 2 2 2 2 3 3
7 7 7 7 7 7 7 7 8 7 8 8 8 8 9 8 6 6 5 4 4 3 3 2 2 2 2 2 2 1 1 1 1 1 1 1 1 1 1 1 1 2 2 2
6 7 7 8 7 7 8 9 8 8 8 8 9 9 8 7 6 6 5 4 4 3 3 2 2 2 2 2 1 1 1 1 1 1 1 1 1 1 1 1 1 1 1 1
6 6 7 7 8 8 10 8 8 8 8 8 8 8 8 7 6 5 4 4 4 3 3 2 2 2 2 1 1 1 1 1 0 0 0 0 0 0 0 0 -0 -0 -0 -0
5 6 7 7 8 9 9 7 7 7 8 8 8 8 7 5 4 5 4 4 4 3 3 2 2 2 1 1 1 0 0 0 -0 -0 -0 -1 -1 -1 -1 -1 -1 -1 -1 -1
4 5 7 7 7 9 10 7 6 7 9 8 7 7 6 5 7 8 5 4 4 3 3 2 2 1 1 1 0 0 -0 -0 -0 -1 -1 -1 -1 -1 -1 -2 -2 -2 -2 -2
5 5 6 6 7 9 9 6 6 8 10 7 6 6 5 5 7 5 5 4 3 3 2 2 2 1 1 1 0 -0 -0 -1 -1 -1 -1 -2 -2 -2 -2 -2 -2 -2 -3 -3
7 7 6 6 6 8 7 5 7 9 7 6 6 5 5 5 5 4 4 4 3 3 2 2 1 1 0 -0 -0 -1 -1 -1 -1 -2 -2 -2 -2 -2 -2 -3 -3 -3 -3 -3
6 7 8 7 9 8 6 7 7 6 6 6 6 5 5 4 4 4 4 3 3 2 2 1 1 0 -0 -0 -1 -1 -1 -1 -2 -2 -2 -2 -2 -3 -3 -3 -3 -4 -4 -4
5 4 5 5 7 6 5 5 6 6 6 6 5 5 5 4 4 4 3 3 2 2 1 1 0 -0 -0 -1 -1 -1 -2 -2 -2 -2 -3 -3 -3 -3 -3 -4 -4 -4 -4 -5
6 4 4 5 7 6 5 6 6 6 5 5 5 5 4 4 4 3 3 2 2 1 1 0 -0 -0 -1 -1 -1 -2 -2 -2 -3 -3 -3 -3 -3 -4 -4 -4 -4 -4 -5 -5
4 5 6 7 8 7 7 6 6 6 5 5 5 4 4 4 3 3 2 2 2 1 1 0 -0 -1 -1 -2 -2 -2 -2 -3 -3 -3 -4 -4 -4 -4 -5 -5 -4 -4 -5 -5
Wind_Speed
3 3 4 4 3 3 4 3 1 2 2 4 5 8 8 6 6 7 9 10 11 12 12 12 12 11 10 9 9 8 8 7 6 5 6 6 7 6 6 7 9 9 9 10
4 4 4 4 4 4 3 2 1 1 2 3 6 7 4 3 4 7 9 10 11 13 13 13 13 11 10 10 9 8 7 7 6 6 6 6 6 5 6 5 7 8 9 9
4 4 4 4 4 3 3 2 1 2 5 2 5 3 1 2 4 7 9 10 11 12 13 13 13 12 11 10 9 7 7 6 6 6 5 4 4 4 5 5 6 8 8 9
3 2 3 3 2 2 1 1 2 4 4 1 3 2 1 2 4 8 10 11 12 13 12 12 13 13 12 11 9 8 7 5 5 4 4 5 4 5 6 5 5 6 7 8
2 2 2 2 1 2 0 1 3 3 3 3 2 3 1 2 5 8 10 11 12 12 12 12 12 12 12 11 10 8 8 6 5 3 2 3 4 4 4 4 5 5 6 6
2 1 1 0 0 2 1 1 1 2 2 2 2 3 2 2 5 7 8 10 11 11 11 11 12 12 11 11 10 9 9 8 6 3 2 2 3 3 3 3 3 4 4 4
2 1 1 1 1 2 2 2 1 2 2 1 1 3 3 2 3 4 6 8 9 10 11 11 13 12 12 12 11 10 10 9 8 5 3 3 2 2 3 4 4 4 3 4
1 1 2 2 2 1 1 2 2 2 1 1 2 3 1 1 2 3 4 6 7 8 9 10 11 11 11 11 11 11 10 9 9 7 5 4 3 2 2 3 4 4 4 4
1 1 1 1 2 2 1 1 1 2 2 3 2 2 2 1 1 2 4 5 7 7 8 8 9 10 10 11 11 10 10 10 10 9 7 6 5 4 4 4 4 4 4 5
1 1 1 0 2 1 1 1 2 2 2 2 2 3 2 3 3 2 3 5 5 6 7 7 8 9 9 9 9 10 10 10 10 10 9 7 7 6 6 5 5 5 5 5
1 1 1 2 3 2 3 2 2 2 2 3 2 1 1 3 2 3 3 3 4 5 6 6 6 7 8 8 9 10 10 10 10 10 10 10 9 8 7 6 7 7 7 7
1 1 2 2 1 1 3 3 3 2 2 3 3 2 2 2 2 2 3 2 2 3 4 5 6 6 7 8 9 9 9 10 10 9 9 9 9 8 8 8 8 8 7 7
2 2 2 2 2 2 3 3 4 3 2 3 3 2 3 2 2 3 4 3 2 2 3 4 5 6 7 8 8 8 9 9 9 9 9 9 9 9 9 8 8 8 7 8
2 2 4 3 2 2 4 5 5 5 4 4 6 6 3 4 5 5 4 4 3 2 2 3 4 4 5 6 7 8 8 9 9 9 9 10 10 9 9 9 8 8 8 8
1 3 4 7 8 7 8 9 9 10 9 7 6 7 8 6 6 5 4 4 4 3 3 2 3 3 4 5 6 7 7 8 8 8 8 8 9 8 8 9 9 9 9 9
1 3 3 5 5 6 9 11 12 12 12 12 12 11 7 5 4 5 5 4 5 5 4 3 3 3 3 4 5 6 6 7 7 7 8 8 8 8 8 9 9 9 9 9
2 2 2 3 4 6 8 9 11 8 9 9 10 7 4 5 6 6 6 6 6 5 4 4 3 3 3 4 4 5 6 6 6 7 7 8 8 8 9 9 9 9 9 10
3 2 2 4 5 5 1 2 5 8 9 11 10 8 7 6 5 5 6 6 6 5 4 4 3 3 3 3 4 4 5 5 6 7 7 8 8 9 9 9 9 9 9 9
7 4 3 3 4 8 5 4 5 6 6 8 11 9 6 3 4 5 5 5 5 5 4 3 3 2 2 3 3 4 4 5 6 7 8 8 8 9 9 9 10 9 9 9
4 5 4 4 4 5 1 3 3 2 5 4 7 7 5 4 5 3 3 4 4 3 3 2 2 2 2 3 3 3 4 5 6 7 8 8 8 8 9 9 10 9 9 9
4 5 7 8 7 8 2 5 6 5 1 3 5 6 6 7 5 1 2 3 3 3 3 2 2 2 2 2 2 3 4 5 6 7 7 8 8 8 8 9 8 9 9 9
7 6 7 6 7 8 6 8 8 4 1 3 4 5 7 7 4 3 4 3 3 3 3 3 3 3 2 2 3 4 4 5 6 7 7 8 8 7 7 8 9 9 9 10
8 7 5 8 8 2 7 9 4 2 4 4 5 5 6 6 6 5 5 4 4 4 4 3 3 3 2 2 3 4 5 5 6 7 8 8 8 8 8 8 9 9 8 8
6 5 6 8 12 11 10 11 10 8 8 7 6 6 7 7 7 6 5 5 5 5 4 4 4 3 3 2 3 3 4 5 6 7 8 8 8 8 8 7 7 7 8 8
7 7 7 11 11 10 10 11 10 8 8 7 7 7 8 8 7 7 6 6 5 5 4 4 4 4 3 2 3 3 3 4 5 7 7 7 7 8 8 8 7 8 8 9
10 13 10 11 9 7 6 4 6 7 7 7 6 6 7 8 8 7 6 5 5 5 4 4 4 4 3 2 2 3 3 4 5 6 6 6 6 7 7 8 9 10 11 14
Wind_Direction
76 101 109 110 107 113 134 159 219 270 306 300 288 297 314 331 345 345 343 339 337 335 335 336 334 328 319 312 303 290 283 274 264 255 250 246 245 244 242 242 240 237 235 231
114 99 107 122 133 138 153 173 250 288 305 293 297 298 312 351 1 357 351 346 343 340 341 342 340 337 330 322 315 305 291 278 261 250 247 249 251 248 246 248 246 241 238 232
102 105 129 141 143 156 184 209 254 307 320 270 290 261 153 40 13 9 4 357 352 348 344 345 345 342 338 334 328 320 308 291 275 260 248 248 248 253 249 247 247 244 241 237
81 124 156 157 164 189 188 206 255 285 298 301 315 270 203 338 352 5 2 358 353 351 349 348 348 347 345 343 341 337 330 320 307 281 252 238 238 242 248 251 250 252 252 248
112 151 164 177 203 202 250 302 264 265 270 274 244 258 253 340 334 349 354 354 353 354 355 353 351 349 350 351 350 348 348 347 341 323 284 253 253 255 262 264 260 259 258 255
102 146 214 224 31 197 229 238 209 210 234 245 220 244 273 335 325 331 344 350 353 356 356 355 355 356 359 360 360 359 360 358 353 350 328 283 270 273 275 283 282 273 270 269
82 138 163 190 192 168 220 251 220 207 217 235 153 244 271 331 329 329 336 344 351 357 358 360 1 2 3 2 2 4 8 3 1 0 349 319 293 279 268 268 266 268 276 284
66 123 174 199 233 215 199 283 312 297 293 303 208 248 275 29 353 354 343 341 350 357 360 1 3 3 4 3 4 6 11 9 7 6 4 3 347 316 291 285 282 282 285 284
11 16 116 208 217 211 193 207 328 290 283 267 240 246 221 185 305 332 337 343 354 356 357 359 1 4 6 6 7 8 11 12 11 12 13 13 11 7 348 330 312 303 301 299
333 301 288 200 186 204 253 200 209 241 274 277 258 245 247 229 267 292 320 338 350 354 356 358 359 0 3 6 6 11 15 16 14 15 15 12 10 7 359 353 348 337 327 319
272 292 275 203 223 205 178 195 218 234 274 282 285 256 146 222 256 278 303 323 337 343 349 353 355 358 0 5 10 13 13 15 15 14 12 12 10 7 4 359 356 353 347 342
224 274 273 251 241 278 233 231 217 251 241 249 274 275 115 214 252 263 275 290 309 321 336 343 352 0 6 8 10 12 12 14 11 9 9 10 9 9 8 3 357 352 347 344
194 233 276 200 187 195 228 225 221 242 258 235 241 245 136 207 243 253 256 262 270 294 321 337 348 357 2 4 6 8 10 9 7 8 9 10 10 8 4 360 357 354 348 344
207 240 245 258 296 242 242 232 213 213 230 239 238 257 246 246 259 262 256 255 260 270 294 321 335 347 356 359 2 3 5 5 4 6 7 7 4 1 358 357 355 354 351 349
240 257 253 265 270 261 257 251 230 223 235 247 255 259 267 266 260 255 253 254 258 263 268 286 310 334 347 353 355 358 359 359 358 0 2 360 356 355 354 355 354 352 352 350
289 264 280 277 256 257 261 251 239 237 238 243 258 269 269 264 238 241 243 244 249 258 259 267 284 310 329 338 343 348 350 351 352 356 355 354 352 353 354 353 350 349 348 347
258 260 281 275 301 289 265 242 220 218 219 223 239 248 235 238 235 241 246 243 245 251 255 259 270 286 307 325 333 337 340 343 348 351 351 351 349 349 348 346 345 345 343 342
227 232 257 288 302 256 238 132 210 223 237 228 241 248 242 247 254 252 249 246 249 250 251 254 261 274 296 314 322 328 334 339 342 345 345 345 343 342 340 340 340 338 335 334
220 226 243 256 276 276 269 211 199 219 258 229 232 241 242 240 249 243 225 227 239 244 246 250 253 263 281 298 311 320 330 337 341 342 340 339 338 337 337 338 336 333 331 329
194 224 239 234 256 256 232 149 166 208 260 203 210 225 218 201 250 257 173 202 222 227 228 233 238 248 265 290 304 312 325 333 336 334 331 331 332 332 332 330 328 327 325 321
188 207 223 232 245 264 234 151 160 214 287 151 202 217 205 215 253 317 168 200 208 212 215 213 222 238 260 283 295 303 316 324 327 326 325 327 328 326 323 322 322 323 322 320
209 207 210 207 225 249 165 160 199 239 90 195 219 224 222 232 245 234 225 220 214 211 209 208 219 240 259 272 283 294 309 321 324 323 322 323 324 323 320 320 321 322 321 320
222 220 220 215 232 273 182 208 229 235 231 231 232 235 228 235 239 236 232 227 225 223 217 212 221 236 250 259 272 290 310 321 322 321 321 320 321 321 322 321 321 321 321 320
235 215 232 253 257 253 245 245 250 244 243 246 239 233 224 233 237 235 231 227 224 223 221 215 217 232 249 264 281 292 307 315 314 315 317 318 319 319 320 318 317 318 318 318
236 195 223 250 264 273 255 237 239 242 243 241 239 235 230 230 233 231 229 227 225 222 218 212 219 232 244 259 280 299 307 311 310 312 315 317 316 316 317 316 314 312 308 309
215 213 222 244 238 231 250 229 225 231 238 238 236 240 234 228 231 227 228 224 220 217 212 213 221 233 243 256 277 300 310 311 310 312 315 315 314 314 315 316 313 305 303 307
Height
1510 1511 1511 1512 1513 1512 1513 1513 1512 1513 1515 1515 1510 1507 1506 1505 1504 1503 1501 1498 1495 1492 1490 1486 1483 1480 1477 1475 1474 1473 1472 1472 1473 1473 1474 1475 1476 1477 1478 1480 1481 1483 1484 1486
1511 1513 1515 1516 1516 1515 1515 1514 1512 1513 1514 1513 1508 1505 1504 1504 1504 1503 1500 1497 1494 1491 1487 1484 1480 1477 1474 1472 1470 1469 1468 1468 1468 1468 1469 1470 1472 1472 1474 1475 1476 1478 1479 1481
1510 1515 1517 1516 1515 1515 1514 1513 1512 1513 1512 1511 1508 1500 1501 1502 1503 1502 1500 1497 1494 1491 1487 1483 1479 1475 1472 1469 1467 1465 1464 1464 1464 1464 1465 1466 1467 1468 1469 1470 1471 1473 1474 1476
1513 1516 1517 1516 1515 1514 1512 1514 1515 1515 1511 1506 1508 1499 1496 1499 1499 1500 1499 1496 1493 1490 1486 1482 1478 1474 1471 1468 1465 1463 1462 1461 1460 1460 1461 1462 1463 1464 1465 1466 1467 1468 1469 1470
1514 1516 1516 1515 1515 1515 1514 1516 1515 1514 1512 1509 1506 1504 1495 1497 1497 1498 1498 1496 1493 1490 1486 1482 1478 1474 1470 1467 1464 1462 1460 1459 1458 1458 1458 1459 1460 1461 1462 1463 1463 1464 1465 1465
1515 1517 1517 1516 1516 1517 1516 1516 1514 1513 1510 1507 1504 1503 1496 1497 1499 1499 1498 1496 1493 1490 1486 1482 1478 1474 1470 1466 1463 1461 1459 1457 1457 1456 1456 1457 1457 1458 1459 1459 1460 1460 1461 1461
1514 1515 1517 1517 1516 1516 1515 1512 1507 1504 1502 1497 1503 1503 1498 1498 1500 1500 1499 1497 1494 1490 1486 1482 1478 1474 1470 1467 1464 1461 1459 1457 1455 1455 1454 1454 1455 1455 1456 1456 1457 1457 1456 1456
1513 1513 1515 1516 1515 1513 1513 1512 1507 1500 1494 1493 1501 1498 1495 1499 1500 1500 1499 1497 1494 1490 1487 1483 1479 1475 1471 1468 1464 1461 1459 1457 1455 1454 1453 1452 1452 1453 1453 1453 1453 1453 1453 1453
1511 1512 1514 1515 1515 1514 1512 1511 1512 1509 1505 1500 1492 1494 1495 1498 1499 1499 1498 1496 1493 1490 1487 1484 1480 1476 1472 1469 1466 1462 1460 1457 1455 1453 1452 1451 1451 1450 1450 1450 1450 1450 1450 1449
1515 1514 1513 1514 1515 1514 1514 1512 1512 1508 1501 1491 1488 1489 1489 1494 1495 1496 1496 1495 1493 1491 1487 1484 1481 1477 1474 1470 1467 1464 1461 1458 1456 1454 1453 1451 1450 1449 1449 1448 1447 1447 1446 1445
1516 1515 1513 1513 1511 1508 1513 1513 1510 1507 1506 1496 1487 1486 1489 1491 1493 1494 1494 1494 1492 1490 1488 1485 1481 1478 1475 1472 1468 1465 1462 1460 1457 1455 1453 1451 1450 1448 1447 1446 1445 1444 1443 1442
1516 1514 1511 1509 1510 1510 1509 1508 1507 1504 1504 1502 1494 1491 1492 1493 1493 1494 1494 1493 1492 1490 1488 1485 1482 1479 1476 1473 1470 1467 1464 1461 1458 1456 1454 1452 1450 1448 1446 1444 1443 1441 1440 1439
1515 1514 1509 1505 1510 1511 1508 1507 1507 1506 1504 1500 1495 1490 1492 1493 1493 1493 1492 1492 1491 1489 1487 1484 1482 1479 1476 1474 1471 1468 1465 1462 1460 1457 1454 1451 1449 1447 1445 1443 1441 1439 1438 1436
1515 1512 1510 1503 1499 1503 1504 1504 1505 1505 1502 1494 1491 1486 1489 1490 1490 1491 1490 1490 1489 1488 1486 1484 1482 1479 1477 1474 1471 1469 1466 1463 1460 1457 1454 1451 1448 1446 1443 1441 1439 1438 1436 1434
1514 1511 1509 1506 1504 1504 1502 1500 1500 1501 1496 1492 1485 1486 1484 1486 1488 1488 1488 1487 1487 1486 1484 1483 1481 1479 1477 1474 1471 1469 1466 1463 1460 1457 1454 1451 1448 1445 1443 1440 1438 1435 1433 1431
1515 1511 1509 1505 1502 1502 1500 1495 1495 1495 1493 1490 1488 1485 1483 1485 1486 1486 1486 1485 1484 1483 1482 1481 1480 1478 1476 1473 1471 1468 1465 1462 1459 1456 1453 1450 1448 1445 1442 1439 1436 1434 1431 1429
1514 1512 1509 1500 1501 1499 1489 1484 1487 1487 1486 1485 1482 1480 1481 1483 1483 1483 1483 1483 1482 1481 1480 1479 1478 1476 1474 1472 1470 1467 1464 1462 1459 1456 1453 1450 1447 1444 1441 1438 1435 1432 1429 1427
1513 1511 1508 1503 1499 1494 1480 1484 1484 1483 1481 1481 1479 1479 1480 1481 1481 1481 1480 1480 1479 1479 1478 1477 1476 1474 1473 1471 1469 1466 1464 1461 1458 1455 1452 1448 1445 1442 1439 1436 1433 1430 1427 1424
1512 1509 1506 1503 1495 1484 1478 1482 1483 1482 1477 1476 1477 1477 1479 1479 1479 1478 1477 1477 1477 1476 1476 1475 1474 1472 1470 1469 1467 1464 1462 1459 1457 1453 1450 1447 1444 1441 1437 1434 1431 1428 1425 1421
1512 1511 1506 1501 1496 1483 1473 1480 1481 1483 1474 1473 1474 1475 1476 1478 1475 1473 1474 1474 1474 1473 1473 1472 1471 1470 1468 1466 1464 1462 1460 1457 1454 1452 1448 1445 1442 1439 1436 1432 1429 1426 1422 1419
1506 1506 1503 1498 1493 1476 1474 1479 1482 1479 1468 1472 1472 1473 1474 1474 1473 1473 1472 1471 1471 1471 1470 1469 1468 1467 1466 1464 1462 1460 1458 1455 1453 1450 1447 1443 1440 1437 1433 1430 1426 1423 1419 1415
1495 1494 1494 1493 1490 1477 1473 1476 1475 1468 1469 1469 1470 1470 1470 1470 1470 1469 1469 1468 1468 1467 1467 1466 1465 1464 1463 1461 1459 1457 1455 1453 1450 1447 1444 1441 1438 1434 1431 1427 1423 1420 1416 1412
1491 1485 1481 1480 1473 1468 1469 1468 1467 1467 1467 1466 1467 1467 1467 1467 1466 1466 1466 1465 1465 1464 1464 1463 1462 1461 1460 1458 1456 1454 1452 1450 1447 1445 1442 1439 1435 1432 1428 1424 1420 1417 1413 1409
1484 1485 1483 1477 1466 1465 1465 1464 1464 1464 1463 1463 1463 1464 1464 1463 1463 1463 1462 1462 1461 1461 1460 1460 1459 1457 1456 1455 1453 1451 1449 1447 1444 1442 1439 1436 1432 1429 1425 1422 1418 1414 1410 1406
1476 1479 1476 1469 1463 1461 1458 1458 1458 1459 1459 1459 1459 1459 1459 1459 1459 1459 1458 1458 1458 1457 1457 1456 1455 1454 1453 1451 1450 1448 1446 1444 1441 1438 1436 1432 1429 1425 1422 1418 1415 1411 1408 1404
1466 1466 1465 1457 1454 1455 1453 1453 1454 1454 1454 1454 1454 1454 1454 1454 1454 1454 1454 1454 1454 1453 1453 1452 1451 1451 1449 1448 1446 1445 1443 1440 1438 1435 1432 1429 1425 1422 1419 1415 1411 1408 1405 1401